Regional Weather Roundup
Issued by NWS Cleveland, OH

Home | Current Version | Previous Version | Graphics & Text | Print | Product List | Glossary On
Versions: 1 2 3 4 5 6 7 8 9 10 11 12 13 14 15 16 17 18 19 20 21 22 23 24 25 26 27 28 29 30 31 32 33 34 35 36 37 38 39 40 41 42 43 44 45 46 47 48 49 50
000
ASUS41 KCLE 010302
RWRCLE
OHIO REGIONAL WEATHER ROUNDUP
NATIONAL WEATHER SERVICE CLEVELAND, OH
1100 PM EDT SUN APR 30 2017

NOTE: "FAIR" INDICATES FEW OR NO CLOUDS BELOW 12,000 FEET WITH NO
SIGNIFICANT WEATHER AND/OR OBSTRUCTIONS TO VISIBILITY.

OHZ001>008-015>018-024>027-034-035-043-044-010400-
   NORTHWEST OHIO

CITY           SKY/WX    TMP DP  RH WIND       PRES   REMARKS
DEFIANCE       PTCLDY    61  61 100 E9        29.73F
FINDLAY        MOCLDY    65  61  87 E7        29.74F
TOLEDO EXPRESS CLOUDY    55  55 100 E6        29.75F FOG
TOLEDO EXEC    CLOUDY    57  57 100 CALM      29.77F
LIMA           CLOUDY    68  63  84 S8        29.74S
$$

OHZ009>014-019>023-028>033-038-089-010400-
   NORTHEAST OHIO

CITY           SKY/WX    TMP DP  RH WIND       PRES   REMARKS
CLE-HOPKINS    CLOUDY    66  58  75 E8        29.82F
CLE-LAKEFRONT  CLOUDY    64  59  83 E8        29.79F
CUY CO. ARPT   CLOUDY    63  59  88 SE8       29.84F
LORAIN-ELYRIA  MOCLDY    62  58  86 SE7       29.80F
ASHTABULA      LGT RAIN  49  47  93 E6        29.89F
AKRON-CANTON   CLOUDY    72  64  76 SE9       29.84F
WOOSTER        CLOUDY    67  64  90 SE8       29.83F
MANSFIELD      MOCLDY    74  63  68 SE17      29.79F
YOUNGSTOWN     CLOUDY    70  61  73 SE6       29.86F
$$

OHZ042-051>053-060>062-070>072-077>081-010400-
  SOUTHWEST OHIO

CITY           SKY/WX    TMP DP  RH WIND       PRES   REMARKS
CINC-COVINGTON CLOUDY    70  63  78 S21       29.76F
CINC-LUNKEN    CLOUDY    69  65  86 S12       29.75F
HAMILTON       PTCLDY    72  63  73 VRB7G21   29.74F
DAYTON         CLOUDY    72  60  66 S17G26    29.75F
WRIGHT-PAT AFB NOT AVBL
DAYTON GENERAL CLOUDY    71  61  70 S14G23    29.74F
WILMINGTON     LGT RAIN  68  64  87 S13       29.79F
$$

OHZ036-037-039>041-045>050-054>059-063>069-073>076-082>088-010400-
  CENTRAL AND SOUTHEAST OHIO

CITY           SKY/WX    TMP DP  RH WIND       PRES   REMARKS
COLUMBUS       CLOUDY    76  61  59 SW8       29.82S
OSU AIRPORT    LGT RAIN  76  61  59 S17G32    29.81S
BOLTON FIELD   NOT AVBL
RICKENBACK AFB CLOUDY    73  62  68 W12       29.82S
NEWARK         CLOUDY    74  61  63 S5        29.82F
MARION         CLOUDY    78  58  49 S20       29.77F
LANCASTER      CLOUDY    78  60  53 S10       29.83F
ZANESVILLE     CLOUDY    76  60  57 S9        29.84F
NEW PHILLY     NOT AVBL
$$




USA.gov is the U.S. government's official web portal to all federal, state and local government web resources and services.